Location: Unspecified
(0.0000°N, 0.0000°E)
Time: 06:14:41
(UTC+00:00)

Vanguard 2 Rocket - All Passes

Search period start: 28 July 2014 00:00
Search period end: 07 August 2014 00:00
Orbit: 553 x 3336 km, 32.9° (Epoch: 26 July)

Date Brightness Start Highest point End Pass type
(mag) Time Alt. Az. Time Alt. Az. Time Alt. Az.
28 Jul - 00:19:36 10° SW 00:25:36 80° SE 00:36:28 10° ENE visible
28 Jul - 02:33:30 10° W 02:41:31 34° NNW 02:54:25 10° NE visible
28 Jul - 04:52:49 10° NW 05:02:02 19° N 05:13:35 10° NNE visible
28 Jul - 07:14:01 10° NNW 07:26:37 20° N 07:39:28 10° NE daylight
28 Jul - 09:32:05 10° NW 09:49:52 37° NNE 10:03:30 10° E daylight
28 Jul - 11:50:27 10° NW 12:09:02 80° NE 12:19:56 10° ESE daylight
28 Jul - 14:12:28 10° W 14:24:16 33° SW 14:31:36 10° SSE daylight
28 Jul - 23:22:20 10° SSW 23:27:21 46° SE 23:35:35 10° ENE night (unlit)
29 Jul - 01:34:50 10° W 01:41:46 42° NNW 01:53:41 10° NE visible
29 Jul - 03:52:17 10° NW 04:00:31 20° NNW 04:11:37 10° NNE visible
29 Jul - 06:13:22 10° NNW 06:23:55 18° N 06:35:40 10° NE daylight
29 Jul - 08:31:34 10° NNW 08:48:04 30° NNE 09:02:28 10° ENE daylight
29 Jul - 10:49:11 10° NW 11:08:41 63° NNE 11:21:18 10° ESE daylight
29 Jul - 13:09:39 10° WNW 13:25:19 52° SW 13:34:28 10° SE daylight
29 Jul - 22:25:39 10° S 22:29:23 22° SE 22:34:29 10° E night (unlit)
30 Jul - 00:36:39 10° WSW 00:42:37 58° NNW 00:53:12 10° NE visible
30 Jul - 02:52:23 10° WNW 02:59:43 23° NNW 03:10:19 10° NNE visible
30 Jul - 05:12:50 10° NNW 05:21:27 16° N 05:31:42 10° NE visible
30 Jul - 07:31:21 10° NNW 07:45:51 24° NNE 08:00:09 10° ENE daylight
30 Jul - 09:48:20 10° NW 10:07:44 50° NNE 10:21:56 10° ESE daylight
30 Jul - 12:07:26 10° WNW 12:25:51 73° SW 12:36:45 10° SE daylight
30 Jul - 14:32:09 10° W 14:40:55 20° SW 14:47:07 10° S daylight
30 Jul - 23:38:54 10° SW 23:44:02 90° NW 23:52:54 10° NE visible
31 Jul - 01:53:07 10° WNW 01:59:37 26° NNW 02:09:36 10° NNE visible
31 Jul - 04:12:26 10° NW 04:19:33 16° N 04:28:23 10° NNE visible
31 Jul - 06:31:25 10° NNW 06:43:25 20° NNE 06:56:28 10° NE daylight
31 Jul - 08:47:55 10° NW 09:06:16 40° NNE 09:21:39 10° E daylight
31 Jul - 11:05:47 10° NW 11:25:47 86° NE 11:38:30 10° ESE daylight
31 Jul - 13:28:10 10° W 13:41:51 34° SW 13:50:31 10° SSE daylight
31 Jul - 22:41:33 10° SW 22:45:56 48° SE 22:52:40 10° ENE night (unlit)
01 Aug - 00:54:23 10° W 01:00:06 33° NNW 01:09:21 10° NE visible
01 Aug - 03:12:16 10° NW 03:18:21 16° N 03:26:11 10° NNE visible
01 Aug - 05:31:46 10° NNW 05:41:00 17° N 05:51:43 10° NE visible
01 Aug - 07:47:55 10° NNW 08:04:27 32° NNE 08:20:12 10° E daylight
01 Aug - 10:04:42 10° NW 10:25:06 68° NE 10:39:37 10° ESE daylight
01 Aug - 12:25:06 10° WNW 12:42:27 51° SW 12:53:10 10° SE daylight
01 Aug - 14:54:07 10° SW 14:58:01 12° SW 15:01:21 10° SSW daylight
01 Aug - 21:44:44 10° SSW 21:48:03 22° SE 21:52:15 10° E night (unlit)
01 Aug - 23:56:07 10° WSW 00:01:09 46° NNW 00:09:28 10° NE visible
02 Aug - 02:12:27 10° NW 02:17:51 17° NNW 02:25:07 10° NNE visible
02 Aug - 04:32:20 10° NNW 04:38:55 14° N 04:46:42 10° NNE visible
02 Aug - 06:48:22 10° NNW 07:02:23 25° NNE 07:17:21 10° ENE daylight
02 Aug - 09:04:10 10° NW 09:23:55 54° NNE 09:39:58 10° ESE daylight
02 Aug - 11:22:51 10° WNW 11:42:33 71° SW 11:55:14 10° SE daylight
02 Aug - 13:47:57 10° W 13:58:38 22° SW 14:06:10 10° S daylight
02 Aug - 22:58:14 10° WSW 23:02:43 76° NW 23:09:49 10° NE night (unlit)
03 Aug - 01:13:05 10° WNW 01:18:00 20° NNW 01:24:56 10° NNE visible
03 Aug - 03:32:59 10° NNW 03:37:22 12° N 03:42:30 10° NNE visible
03 Aug - 05:49:15 10° NNW 06:00:16 20° NNE 06:12:59 10° ENE daylight
03 Aug - 08:04:12 10° NW 08:22:23 43° NNE 08:39:19 10° E daylight
03 Aug - 10:21:21 10° NW 10:42:05 90° NNE 10:56:44 10° SE daylight
03 Aug - 12:43:44 10° W 12:59:05 35° SW 13:09:14 10° SSE daylight
03 Aug - 22:00:43 10° SW 22:04:42 54° SE 22:10:15 10° ENE night (unlit)
04 Aug - 00:14:10 10° WNW 00:18:42 24° NNW 00:25:21 10° NNE visible
04 Aug - 02:33:27 10° NNW 02:36:29 11° N 02:39:58 10° NNE visible
04 Aug - 04:50:37 10° NNW 04:58:16 15° NNE 05:07:19 10° NE visible
04 Aug - 07:04:45 10° NNW 07:20:41 33° NNE 07:37:27 10° E daylight
04 Aug - 09:20:34 10° NW 09:41:06 73° NE 09:57:33 10° ESE daylight
04 Aug - 11:40:37 10° WNW 11:59:11 51° SW 12:11:36 10° SE daylight
04 Aug - 14:09:33 10° WSW 14:15:56 14° SW 14:21:05 10° S daylight
04 Aug - 21:03:37 10° SSW 21:06:50 24° SE 21:10:32 10° E night (unlit)
04 Aug - 23:15:41 10° W 23:19:54 34° NNW 23:26:09 10° NE night (unlit)
05 Aug - 01:33:33 10° NNW 01:36:16 12° N 01:39:24 10° N visible
05 Aug - 03:52:50 10° N 03:56:37 11° N 04:00:51 10° NNE visible
05 Aug - 06:05:49 10° NNW 06:18:55 25° NNE 06:34:04 10° ENE daylight
05 Aug - 08:20:27 10° NW 08:39:47 58° NE 08:57:32 10° ESE daylight
05 Aug - 10:38:30 10° WNW 10:58:49 68° SW 11:13:23 10° SE daylight
05 Aug - 13:03:36 10° W 13:16:04 24° SW 13:24:59 10° SSE daylight
05 Aug - 20:07:46 10° SSE 20:08:42 11° SSE 20:09:39 10° SE visible
05 Aug - 22:17:33 10° WSW 22:21:34 59° NNW 22:27:11 10° NE night (unlit)
06 Aug - 00:33:41 10° NW 00:36:37 13° NNW 00:40:11 10° N visible
06 Aug - 05:07:28 10° NNW 05:17:14 19° NNE 05:29:05 10° ENE visible
06 Aug - 07:20:57 10° NW 07:38:20 45° NNE 07:56:30 10° E daylight
06 Aug - 09:37:17 10° NW 09:57:59 86° SW 10:14:33 10° SE daylight
06 Aug - 11:59:20 10° W 12:15:58 36° SW 12:27:41 10° SSE daylight
06 Aug - 21:19:44 10° SW 21:23:36 65° SE 21:28:16 10° ENE night (unlit)
06 Aug - 23:34:15 10° WNW 23:37:28 17° NNW 23:41:35 10° NNE night (unlit)
